カタログに戻る

SL-8 R/B

運用中PO
NORAD 9848·ROCKET BODY·🇷🇺 Russia

打ち上げ Feb 21, 1977 から Plesetsk Cosmodrome

Loading…

次のパス (今後24時間)

TLE

最新Source: Space-Track

元期: Sep 14, 2026, 18:31 UTC

1 09848U 77013B   26257.77177200  .00000085  00000-0  71845-4 0  9992
2 09848  82.9555   5.2404 0016785 170.2106 352.1103 13.75764409487262

AllMySatでSL-8 R/Bをリアルタイム追跡

Download on the App Store